Regional Weather Roundup
Issued by NWS

Home | Current Version | Previous Version | Graphics & Text | Print | Product List | Glossary On
Versions: 1 2 3 4 5 6 7 8 9 10 11 12 13 14 15 16 17 18 19 20 21 22 23 24 25 26 27 28 29 30 31 32 33 34 35 36 37 38 39 40 41 42 43 44 45 46 47 48 49 50
000
ASUS45 KBOU 271907
RWRCO

WEATHER ROUNDUP FOR COLORADO
NATIONAL WEATHER SERVICE DENVER/BOULDER CO
100 PM MDT FRI MAR 27 2015

NOTE: "FAIR" INDICATES FEW OR NO CLOUDS BELOW 12000 FEET WITH NO
SIGNIFICANT WEATHER AND/OR OBSTRUCTIONS TO VISIBILITY.

COZ001>005-013-030-031-272000-
...NORTHWEST COLORADO...

CITY           SKY/WX    TMP DP  RH WIND       PRES   REMARKS
CRAIG          SUNNY     61  31  32 W15G22    30.29F
HAYDEN         MOSUNNY   54  28  37 N7G16     30.31F
MEEKER         SUNNY     60  28  29 SW10      30.30F
MOUNT WERNER   NOT AVBL
STEAMBOAT SPGS PTSUNNY   52  32  46 SW6       30.32F
WALDEN         MOSUNNY   50  28  43 S6        30.30F
$$

COZ006>008-011-272000-
...WEST CENTRAL VALLEYS...

CITY           SKY/WX    TMP DP  RH WIND       PRES   REMARKS
GRAND JUNCTION SUNNY     64  22  20 VRB5      30.26F
MONTROSE       SUNNY     63  20  19 NE7       30.30F
EAGLE          SUNNY     59  27  29 CALM      30.30F
RIFLE          SUNNY     60  27  28 VRB3      30.27F
DELTA          SUNNY     65  21  18 S3        30.28F
NUCLA          SUNNY     63  21  20 W7        30.34F
$$

COZ017>023-064>068-272000-
...SOUTHWEST COLORADO...

CITY           SKY/WX    TMP DP  RH WIND       PRES   REMARKS
DURANGO        SUNNY     64  24  21 SW10G18   30.29F
CORTEZ         SUNNY     67  23  19 W12       30.29F
PAGOSA SPRINGS SUNNY     61  14  16 SW10      30.31F
TELLURIDE      SUNNY     55  20  26 W10G17    30.40F
WOLF CREEK PAS SUNNY     37  12  35 N8G17     30.53S
$$

COZ009-010-012-014-032>034-037-058>063-272000-
...CENTRAL COLORADO...

CITY           SKY/WX    TMP DP  RH WIND       PRES   REMARKS
ASPEN          SUNNY     54  26  34 N12G21    30.33F
BUENA VISTA    SUNNY     60  19  20 NW14      30.26F
COPPER MTN     MOSUNNY   37  25  60 W22G30    30.44F
BERTHOUD PASS  CLOUDY    25  19  80 NW31G45   30.40R WCI   8
COTTONWOOD PAS MOSUNNY   54  14  20 W14G28    30.35S
GUNNISON       SUNNY     55  21  26 W3        30.36F
KREMMLING      PTSUNNY   55  27  33 NW8       30.32F
LEADVILLE      SUNNY     43  22  43 W13       30.35S
SALIDA         SUNNY     64  19  17 SW17G23   30.32F
SUNLIGHT       SUNNY     43  25  49 CALM      30.48F
WILKERSON PASS SUNNY     45  19  36 W12G25    30.41F
$$

COZ069>075-272000-
...SAN LUIS VALLEY/SANGRE DE CRISTO MOUNTAINS...

CITY           SKY/WX    TMP DP  RH WIND       PRES   REMARKS
ALAMOSA        SUNNY     61  18  18 VRB5      30.28F
LA VETA PASS   SUNNY     48  19  32 S12G24    30.36F
SAGUACHE       SUNNY     61  19  20 NW22      30.29F
$$

COZ035-036-038>040-272000-
...NORTHERN COLORADO FRONT RANGE...

CITY           SKY/WX    TMP DP  RH WIND       PRES   REMARKS
DENVER INTL AP PTSUNNY   64  29  26 VRB3      30.15F
DMNS CITY PARK   N/A     68  29  23 NW13      30.12F
AURORA         PTSUNNY   64  30  27 NW8       30.15F
FRONT RANGE AP NOT AVBL
ERIE MUNI ARPT MOSUNNY   67  26  21 CALM      30.13S
BOULDER MUN AP MOSUNNY   68  30  24 E5        30.12F
CENTENNIAL     PTSUNNY   63  28  26 NW10      30.15F
BROOMFIELD     NOT AVBL
FORT COLLINS   SUNNY     64  34  32 S5        30.14F
LONGMONT       SUNNY     70  31  23 E3        30.14F
$$

COZ041-046-047-076>085-087-088-272000-
...PIKES PEAK/PALMER DIVIDE AND SOUTHERN FOOTHILLS...

CITY           SKY/WX    TMP DP  RH WIND       PRES   REMARKS
COLO. SPRINGS  MOSUNNY   62  24  23 VRB7      30.18F
A. F. ACADEMY  SUNNY     62  25  24 SE12      30.18F
ELLICOTT       SUNNY    N/A N/A N/A W8        30.17F
FALCON         SUNNY     62  24  23 S9        30.21F
FORT CARSON    SUNNY     64  27  25 SE9       30.15F
LIMON          SUNNY     62  31  31 NW12G20   30.16F
MONUMENT HILL  SUNNY     59  27  29 NW9       30.20F
TRINIDAD       SUNNY     66  26  22 VRB3      30.19F
$$

COZ042>045-048>051-090-091-272000-
...NORTHEAST COLORADO...

CITY           SKY/WX    TMP DP  RH WIND       PRES   REMARKS
GREELEY ARPT   MOSUNNY   68  30  24 NW15G32   30.10F
AKRON          SUNNY     63  33  32 W15G22    30.10F
BURLINGTON     MOSUNNY   65  33  30 NW14G26   30.11F
WRAY           MOSUNNY   67  34  30 NW14G22   30.08F
STERLING       MOSUNNY   68  34  28 N16G29    30.07F
HOLYOKE        MOSUNNY   64  34  32 NW20      30.07F
FORT MORGAN    CLOUDY    63  31  29 W12G20    30.11F
$$

COZ086-089-092>099-272000-
...SOUTHEAST COLORADO...

CITY           SKY/WX    TMP DP  RH WIND       PRES   REMARKS
PUEBLO         SUNNY     67  29  24 SE9       30.13F
LA JUNTA       SUNNY     65  30  27 S3        30.15F
LAMAR          SUNNY     63  32  31 CALM      30.14F
SPRINGFIELD      N/A     63  32  31 SW9       30.16F
$$



USA.gov is the U.S. government's official web portal to all federal, state and local government web resources and services.